Year,Month,Day,Hour,Minute,Value (Times are PST for temperature in C)
2011,05,24,00,00,8.30
2011,05,24,00,01,8.30
2011,05,24,00,02,8.30
2011,05,24,00,03,8.30
2011,05,24,00,04,8.30
2011,05,24,00,05,8.30
2011,05,24,00,06,8.30
2011,05,24,00,07,8.30
2011,05,24,00,08,8.30
2011,05,24,00,09,8.30
2011,05,24,00,10,8.30
2011,05,24,00,11,8.30
2011,05,24,00,12,8.30
2011,05,24,00,13,8.30
2011,05,24,00,14,8.30
2011,05,24,00,15,8.30
2011,05,24,00,16,8.30
2011,05,24,00,17,8.30
2011,05,24,00,18,8.30
2011,05,24,00,19,8.30
2011,05,24,00,20,8.40
2011,05,24,00,21,8.40
2011,05,24,00,22,8.40
2011,05,24,00,23,8.30
2011,05,24,00,24,8.30
2011,05,24,00,25,8.30
2011,05,24,00,26,8.30
2011,05,24,00,27,8.30
2011,05,24,00,28,8.30
2011,05,24,00,29,8.30
2011,05,24,00,30,8.30
2011,05,24,00,31,8.30
2011,05,24,00,32,8.30
2011,05,24,00,33,8.30
2011,05,24,00,34,8.30
2011,05,24,00,35,8.30
2011,05,24,00,36,8.30
2011,05,24,00,37,8.30
2011,05,24,00,38,8.30
2011,05,24,00,39,8.30
2011,05,24,00,40,8.20
2011,05,24,00,41,8.20
2011,05,24,00,42,8.20
2011,05,24,00,43,8.20
2011,05,24,00,44,8.30
2011,05,24,00,45,8.20
2011,05,24,00,46,8.20
2011,05,24,00,47,8.20
2011,05,24,00,48,8.20
2011,05,24,00,49,8.20
2011,05,24,00,50,8.20
2011,05,24,00,51,8.20
2011,05,24,00,52,8.20
2011,05,24,00,53,8.20
2011,05,24,00,54,8.20
2011,05,24,00,55,8.20
2011,05,24,00,56,8.30
2011,05,24,00,57,8.30
2011,05,24,00,58,8.30
2011,05,24,00,59,8.40
2011,05,24,01,00,8.40
2011,05,24,01,01,8.40
2011,05,24,01,02,8.40
2011,05,24,01,03,8.40
2011,05,24,01,04,8.40
2011,05,24,01,05,8.40
2011,05,24,01,06,8.40
2011,05,24,01,07,8.40
2011,05,24,01,08,8.40
2011,05,24,01,09,8.40
2011,05,24,01,10,8.40
2011,05,24,01,11,8.40
2011,05,24,01,12,8.50
2011,05,24,01,13,8.50
2011,05,24,01,14,8.50
2011,05,24,01,15,8.50
2011,05,24,01,16,8.60
2011,05,24,01,17,8.60
2011,05,24,01,18,8.60
2011,05,24,01,21,8.60
2011,05,24,01,22,8.60
2011,05,24,01,23,8.60
2011,05,24,01,24,8.60
2011,05,24,01,25,8.60
2011,05,24,01,26,8.60
2011,05,24,01,27,8.60
2011,05,24,01,28,8.60
2011,05,24,01,29,8.60
2011,05,24,01,30,8.60
2011,05,24,01,31,8.60
2011,05,24,01,32,8.60
2011,05,24,01,33,8.50
2011,05,24,01,34,8.50
2011,05,24,01,35,8.50
2011,05,24,01,36,8.50
2011,05,24,01,37,8.40
2011,05,24,01,38,8.40
2011,05,24,01,39,8.40
2011,05,24,01,40,8.40
2011,05,24,01,41,8.40
2011,05,24,01,42,8.30
2011,05,24,01,43,8.30
2011,05,24,01,44,8.30
2011,05,24,01,45,8.30
2011,05,24,01,46,8.30
2011,05,24,01,47,8.30
2011,05,24,01,48,8.30
2011,05,24,01,49,8.30
2011,05,24,01,50,8.30
2011,05,24,01,51,8.30
2011,05,24,01,52,8.30
2011,05,24,01,53,8.30
2011,05,24,01,54,8.30
2011,05,24,01,55,8.20
2011,05,24,01,56,8.20
2011,05,24,01,57,8.20
2011,05,24,01,58,8.20
2011,05,24,01,59,8.10
2011,05,24,02,00,8.10
2011,05,24,02,01,8.10
2011,05,24,02,02,8.10
2011,05,24,02,03,8.00
2011,05,24,02,04,8.00
2011,05,24,02,05,8.00
2011,05,24,02,06,8.00
2011,05,24,02,07,8.00
2011,05,24,02,08,8.00
2011,05,24,02,09,7.90
2011,05,24,02,10,7.90
2011,05,24,02,11,7.90
2011,05,24,02,12,7.90
2011,05,24,02,13,7.90
2011,05,24,02,14,7.90
2011,05,24,02,15,7.90
2011,05,24,02,16,7.90
2011,05,24,02,17,7.80
2011,05,24,02,18,7.80
2011,05,24,02,19,7.80
2011,05,24,02,20,7.80
2011,05,24,02,21,7.80
2011,05,24,02,22,7.80
2011,05,24,02,23,7.80
2011,05,24,02,24,7.70
2011,05,24,02,25,7.70
2011,05,24,02,26,7.70
2011,05,24,02,27,7.70
2011,05,24,02,28,7.70
2011,05,24,02,29,7.70
2011,05,24,02,30,7.60
2011,05,24,02,31,7.60
2011,05,24,02,32,7.60
2011,05,24,02,33,7.60
2011,05,24,02,34,7.60
2011,05,24,02,35,7.60
2011,05,24,02,36,7.60
2011,05,24,02,37,7.60
2011,05,24,02,38,7.60
2011,05,24,02,39,7.60
2011,05,24,02,40,7.60
2011,05,24,02,41,7.60
2011,05,24,02,42,7.60
2011,05,24,02,43,7.60
2011,05,24,02,44,7.50
2011,05,24,02,45,7.50
2011,05,24,02,46,7.40
2011,05,24,02,47,7.40
2011,05,24,02,48,7.30
2011,05,24,02,49,7.30
2011,05,24,02,50,7.30
2011,05,24,02,51,7.20
2011,05,24,02,52,7.20
2011,05,24,02,53,7.20
2011,05,24,02,54,7.20
2011,05,24,02,55,7.20
2011,05,24,02,56,7.20
2011,05,24,02,57,7.20
2011,05,24,02,58,7.20
2011,05,24,02,59,7.20
2011,05,24,03,00,7.20
2011,05,24,03,01,7.20
2011,05,24,03,02,7.20
2011,05,24,03,06,7.20
2011,05,24,03,07,7.20
2011,05,24,03,08,7.20
2011,05,24,03,09,7.20
2011,05,24,03,10,7.10
2011,05,24,03,11,7.10
2011,05,24,03,12,7.10
2011,05,24,03,13,7.00
2011,05,24,03,14,7.00
2011,05,24,03,15,7.00
2011,05,24,03,16,7.00
2011,05,24,03,17,6.90
2011,05,24,03,18,6.90
2011,05,24,03,19,6.90
2011,05,24,03,20,6.90
2011,05,24,03,21,6.90
2011,05,24,03,22,6.90
2011,05,24,03,23,6.90
2011,05,24,03,24,6.90
2011,05,24,03,25,6.90
2011,05,24,03,26,6.90
2011,05,24,03,27,6.90
2011,05,24,03,28,6.90
2011,05,24,03,29,6.80
2011,05,24,03,30,6.80
2011,05,24,03,31,6.80
2011,05,24,03,32,6.80
2011,05,24,03,33,6.80
2011,05,24,03,34,6.70
2011,05,24,03,35,6.70
2011,05,24,03,36,6.70
2011,05,24,03,37,6.60
2011,05,24,03,38,6.60
2011,05,24,03,39,6.60
2011,05,24,03,40,6.60
2011,05,24,03,41,6.60
2011,05,24,03,42,6.60
2011,05,24,03,43,6.60
2011,05,24,03,44,6.60
2011,05,24,03,45,6.60
2011,05,24,03,46,6.60
2011,05,24,03,47,6.60
2011,05,24,03,48,6.60
2011,05,24,03,49,6.60
2011,05,24,03,50,6.60
2011,05,24,03,51,6.60
2011,05,24,03,52,6.60
2011,05,24,03,53,6.60
2011,05,24,03,54,6.60
2011,05,24,03,55,6.50
2011,05,24,03,56,6.50
2011,05,24,03,57,6.40
2011,05,24,03,58,6.40
2011,05,24,03,59,6.40
2011,05,24,04,00,6.30
2011,05,24,04,01,6.30
2011,05,24,04,02,6.30
2011,05,24,04,03,6.30
2011,05,24,04,04,6.30
2011,05,24,04,05,6.30
2011,05,24,04,06,6.20
2011,05,24,04,07,6.20
2011,05,24,04,08,6.20
2011,05,24,04,09,6.20
2011,05,24,04,10,6.20
2011,05,24,04,11,6.20
2011,05,24,04,12,6.20
2011,05,24,04,13,6.20
2011,05,24,04,14,6.20
2011,05,24,04,15,6.10
2011,05,24,04,16,6.10
2011,05,24,04,17,6.10
2011,05,24,04,18,6.10
2011,05,24,04,19,6.10
2011,05,24,04,20,6.10
2011,05,24,04,21,6.10
2011,05,24,04,22,6.10
2011,05,24,04,23,6.10
2011,05,24,04,24,6.10
2011,05,24,04,25,6.20
2011,05,24,04,26,6.20
2011,05,24,04,27,6.20
2011,05,24,04,28,6.20
2011,05,24,04,29,6.20
2011,05,24,04,30,6.20
2011,05,24,04,31,6.20
2011,05,24,04,32,6.20
2011,05,24,04,33,6.20
2011,05,24,04,34,6.20
2011,05,24,04,35,6.20
2011,05,24,04,36,6.20
2011,05,24,04,37,6.20
2011,05,24,04,38,6.20
2011,05,24,04,39,6.20
2011,05,24,04,40,6.10
2011,05,24,04,41,6.10
2011,05,24,04,42,6.10
2011,05,24,04,43,6.10
2011,05,24,04,44,6.00
2011,05,24,04,45,6.00
2011,05,24,04,46,5.90
2011,05,24,04,47,5.90
2011,05,24,04,48,5.90
2011,05,24,04,49,5.90
2011,05,24,04,50,5.90
2011,05,24,04,51,5.90
2011,05,24,04,52,5.90
2011,05,24,04,53,5.90
2011,05,24,04,54,5.90
2011,05,24,04,55,5.90
2011,05,24,04,56,5.80
2011,05,24,04,57,5.80
2011,05,24,04,58,5.80
2011,05,24,04,59,5.80
2011,05,24,05,00,5.80
2011,05,24,05,01,5.70
2011,05,24,05,02,5.70
2011,05,24,05,03,5.80
2011,05,24,05,04,5.80
2011,05,24,05,05,5.80
2011,05,24,05,06,5.80
2011,05,24,05,07,5.80
2011,05,24,05,08,5.90
2011,05,24,05,09,5.90
2011,05,24,05,10,5.90
2011,05,24,05,11,5.90
2011,05,24,05,12,5.80
2011,05,24,05,13,5.80
2011,05,24,05,14,5.80
2011,05,24,05,15,5.80
2011,05,24,05,16,5.80
2011,05,24,05,17,5.80
2011,05,24,05,18,5.80
2011,05,24,05,19,5.70
2011,05,24,05,20,5.70
2011,05,24,05,21,5.70
2011,05,24,05,22,5.70
2011,05,24,05,23,5.60
2011,05,24,05,24,5.60
2011,05,24,05,25,5.60
2011,05,24,05,26,5.60
2011,05,24,05,27,5.60
2011,05,24,05,28,5.60
2011,05,24,05,29,5.60
2011,05,24,05,30,5.60
2011,05,24,05,31,5.50
2011,05,24,05,32,5.50
2011,05,24,05,33,5.60
2011,05,24,05,34,5.60
2011,05,24,05,37,5.70
2011,05,24,05,38,5.70
2011,05,24,05,39,5.80
2011,05,24,05,40,5.80
2011,05,24,05,41,5.80
2011,05,24,05,42,5.90
2011,05,24,05,43,5.90
2011,05,24,05,44,5.90
2011,05,24,05,45,5.90
2011,05,24,05,46,5.80
2011,05,24,05,47,5.80
2011,05,24,05,48,5.80
2011,05,24,05,49,5.80
2011,05,24,05,50,5.80
2011,05,24,05,51,5.80
2011,05,24,05,52,5.80
2011,05,24,05,53,5.80
2011,05,24,05,54,5.80
2011,05,24,05,55,5.80
2011,05,24,05,56,5.80
2011,05,24,05,57,5.80
2011,05,24,05,58,5.80
2011,05,24,05,59,5.80
2011,05,24,06,00,5.80
2011,05,24,06,01,5.90
2011,05,24,06,02,5.90
2011,05,24,06,03,5.90
2011,05,24,06,04,5.90
2011,05,24,06,05,6.00
2011,05,24,06,06,6.00
2011,05,24,06,07,6.00
2011,05,24,06,08,6.10
2011,05,24,06,09,6.10
2011,05,24,06,10,6.10
2011,05,24,06,11,6.10
2011,05,24,06,12,6.10
2011,05,24,06,13,6.20
2011,05,24,06,14,6.20
2011,05,24,06,15,6.20
2011,05,24,06,16,6.30
2011,05,24,06,17,6.30
2011,05,24,06,18,6.30
2011,05,24,06,19,6.40
2011,05,24,06,20,6.50
2011,05,24,06,21,6.50
2011,05,24,06,22,6.60
2011,05,24,06,23,6.70
2011,05,24,06,24,6.70
2011,05,24,06,25,6.80
2011,05,24,06,26,6.80
2011,05,24,06,27,6.90
2011,05,24,06,28,6.90
2011,05,24,06,29,7.00
2011,05,24,06,30,7.00
2011,05,24,06,31,7.10
2011,05,24,06,32,7.20
2011,05,24,06,33,7.20
2011,05,24,06,34,7.20
2011,05,24,06,35,7.20
2011,05,24,06,36,7.30
2011,05,24,06,37,7.30
2011,05,24,06,38,7.30
2011,05,24,06,39,7.40
2011,05,24,06,40,7.40
2011,05,24,06,41,7.50
2011,05,24,06,42,7.50
2011,05,24,06,43,7.50
2011,05,24,06,44,7.60
2011,05,24,06,45,7.60
2011,05,24,06,46,7.70
2011,05,24,06,47,7.70
2011,05,24,06,48,7.80
2011,05,24,06,49,7.80
2011,05,24,06,50,7.80
2011,05,24,06,51,7.90
2011,05,24,06,52,7.90
2011,05,24,06,53,7.90
2011,05,24,06,54,8.00
2011,05,24,06,55,8.00
2011,05,24,06,56,8.10
2011,05,24,06,57,8.10
2011,05,24,06,58,8.20
2011,05,24,06,59,8.20
2011,05,24,07,00,8.30
2011,05,24,07,01,8.30
2011,05,24,07,02,8.40
2011,05,24,07,03,8.40
2011,05,24,07,04,8.50
2011,05,24,07,05,8.60
2011,05,24,07,06,8.60
2011,05,24,07,07,8.70
2011,05,24,07,08,8.80
2011,05,24,07,09,8.90
2011,05,24,07,10,9.00
2011,05,24,07,11,9.00
2011,05,24,07,12,9.10
2011,05,24,07,13,9.20
2011,05,24,07,14,9.30
2011,05,24,07,15,9.40
2011,05,24,07,16,9.50
2011,05,24,07,17,9.50
2011,05,24,07,18,9.60
2011,05,24,07,19,9.60
2011,05,24,07,20,9.70
2011,05,24,07,21,9.70
2011,05,24,07,22,9.80
2011,05,24,07,23,9.90
2011,05,24,07,24,9.90
2011,05,24,07,25,9.90
2011,05,24,07,26,10.00
2011,05,24,07,27,10.10
2011,05,24,07,28,10.10
2011,05,24,07,31,10.20
2011,05,24,07,32,10.20
2011,05,24,07,33,10.20
2011,05,24,07,34,10.20
2011,05,24,07,35,10.30
2011,05,24,07,36,10.40
2011,05,24,07,37,10.40
2011,05,24,07,38,10.50
2011,05,24,07,39,10.50
2011,05,24,07,40,10.60
2011,05,24,07,41,10.60
2011,05,24,07,42,10.60
2011,05,24,07,43,10.70
2011,05,24,07,44,10.70
2011,05,24,07,45,10.70
2011,05,24,07,46,10.70
2011,05,24,07,47,10.70
2011,05,24,07,48,10.70
2011,05,24,07,49,10.80
2011,05,24,07,50,10.80
2011,05,24,07,51,10.80
2011,05,24,07,52,10.80
2011,05,24,07,53,10.90
2011,05,24,07,54,10.90
2011,05,24,07,55,10.90
2011,05,24,07,56,11.00
2011,05,24,07,57,11.00
2011,05,24,07,58,11.00
2011,05,24,07,59,11.10
2011,05,24,08,00,11.10
2011,05,24,08,01,11.10
2011,05,24,08,02,11.20
2011,05,24,08,03,11.10
2011,05,24,08,04,11.10
2011,05,24,08,05,11.10
2011,05,24,08,06,11.00
2011,05,24,08,07,11.00
2011,05,24,08,08,10.90
2011,05,24,08,09,10.90
2011,05,24,08,10,10.90
2011,05,24,08,11,10.90
2011,05,24,08,12,10.90
2011,05,24,08,13,10.90
2011,05,24,08,14,10.90
2011,05,24,08,15,10.90
2011,05,24,08,16,10.80
2011,05,24,08,17,10.80
2011,05,24,08,18,10.80
2011,05,24,08,19,10.80
2011,05,24,08,20,10.80
2011,05,24,08,21,10.90
2011,05,24,08,22,11.00
2011,05,24,08,23,11.00
2011,05,24,08,24,11.10
2011,05,24,08,25,11.10
2011,05,24,08,26,11.10
2011,05,24,08,27,11.10
2011,05,24,08,28,11.20
2011,05,24,08,29,11.20
2011,05,24,08,30,11.30
2011,05,24,08,31,11.30
2011,05,24,08,32,11.30
2011,05,24,08,33,11.40
2011,05,24,08,34,11.40
2011,05,24,08,35,11.40
2011,05,24,08,36,11.30
2011,05,24,08,37,11.30
2011,05,24,08,38,11.30
2011,05,24,08,39,11.30
2011,05,24,08,40,11.40
2011,05,24,08,41,11.40
2011,05,24,08,42,11.40
2011,05,24,08,43,11.50
2011,05,24,08,44,11.60
2011,05,24,08,45,11.60
2011,05,24,08,46,11.70
2011,05,24,08,47,11.70
2011,05,24,08,48,11.70
2011,05,24,08,49,11.70
2011,05,24,08,50,11.70
2011,05,24,08,51,11.70
2011,05,24,08,52,11.70
2011,05,24,08,53,11.60
2011,05,24,08,54,11.60
2011,05,24,08,55,11.70
2011,05,24,08,56,11.80
2011,05,24,08,57,11.80
2011,05,24,08,58,11.90
2011,05,24,08,59,11.90
2011,05,24,09,00,11.80
2011,05,24,09,01,11.80
2011,05,24,09,02,11.70
2011,05,24,09,03,11.70
2011,05,24,09,04,11.60
2011,05,24,09,05,11.60
2011,05,24,09,06,11.60
2011,05,24,09,07,11.60
2011,05,24,09,08,11.70
2011,05,24,09,09,11.70
2011,05,24,09,10,11.70
2011,05,24,09,11,11.70
2011,05,24,09,12,11.70
2011,05,24,09,13,11.60
2011,05,24,09,14,11.60
2011,05,24,09,15,11.60
2011,05,24,09,16,11.50
2011,05,24,09,17,11.50
2011,05,24,09,18,11.50
2011,05,24,09,19,11.50
2011,05,24,09,20,11.50
2011,05,24,09,21,11.50
2011,05,24,09,22,11.50
2011,05,24,09,23,11.50
2011,05,24,09,24,11.60
2011,05,24,09,25,11.60
2011,05,24,09,26,11.60
2011,05,24,09,27,11.60
2011,05,24,09,28,11.60
2011,05,24,09,29,11.60
2011,05,24,09,30,11.60
2011,05,24,09,31,11.60
2011,05,24,09,32,11.60
2011,05,24,09,33,11.60
2011,05,24,09,34,11.70
2011,05,24,09,35,11.70
2011,05,24,09,36,11.70
2011,05,24,09,37,11.70
2011,05,24,09,38,11.70
2011,05,24,09,39,11.70
2011,05,24,09,40,11.70
2011,05,24,09,41,11.80
2011,05,24,09,42,11.80
2011,05,24,09,43,11.80
2011,05,24,09,44,11.80
2011,05,24,09,45,11.80
2011,05,24,09,46,11.90
2011,05,24,09,47,12.00
2011,05,24,09,48,12.10
2011,05,24,09,49,12.20
2011,05,24,09,50,12.30
2011,05,24,09,51,12.40
2011,05,24,09,52,12.50
2011,05,24,09,53,12.60
2011,05,24,09,54,12.70
2011,05,24,09,55,12.70
2011,05,24,09,56,12.80
2011,05,24,09,57,12.90
2011,05,24,09,58,12.90
2011,05,24,09,59,13.00
2011,05,24,10,00,13.00
2011,05,24,10,01,13.10
2011,05,24,10,02,13.10
2011,05,24,10,03,13.20
2011,05,24,10,04,13.30
2011,05,24,10,05,13.30
2011,05,24,10,06,13.40
2011,05,24,10,07,13.40
2011,05,24,10,08,13.50
2011,05,24,10,09,13.60
2011,05,24,10,10,13.70
2011,05,24,10,11,13.70
2011,05,24,10,12,13.80
2011,05,24,10,13,13.70
2011,05,24,10,14,13.60
2011,05,24,10,15,13.50
2011,05,24,10,16,13.50
2011,05,24,10,17,13.50
2011,05,24,10,18,13.50
2011,05,24,10,19,13.60
2011,05,24,10,20,13.70
2011,05,24,10,21,13.70
2011,05,24,10,22,13.60
2011,05,24,10,23,13.60
2011,05,24,10,24,13.60
2011,05,24,10,25,13.60
2011,05,24,10,26,13.60
2011,05,24,10,27,13.70
2011,05,24,10,28,13.80
2011,05,24,10,29,13.80
2011,05,24,10,30,13.90
2011,05,24,10,31,13.90
2011,05,24,10,32,14.00
2011,05,24,10,33,14.10
2011,05,24,10,34,14.20
2011,05,24,10,35,14.10
2011,05,24,10,36,14.00
2011,05,24,10,37,13.90
2011,05,24,10,38,13.80
2011,05,24,10,39,13.70
2011,05,24,10,40,13.70
2011,05,24,10,41,13.80
2011,05,24,10,42,13.80
2011,05,24,10,43,13.80
2011,05,24,10,44,13.80
2011,05,24,10,45,13.80
2011,05,24,10,46,13.90
2011,05,24,10,47,13.90
2011,05,24,10,48,13.90
2011,05,24,10,49,13.90
2011,05,24,10,50,14.00
2011,05,24,10,51,14.00
2011,05,24,10,52,13.90
2011,05,24,10,53,13.90
2011,05,24,10,54,13.90
2011,05,24,10,55,13.90
2011,05,24,10,56,13.90
2011,05,24,10,57,13.90
2011,05,24,10,58,13.80
2011,05,24,10,59,13.80
2011,05,24,11,00,13.80
2011,05,24,11,01,13.80
2011,05,24,11,02,14.00
2011,05,24,11,03,14.10
2011,05,24,11,04,14.10
2011,05,24,11,05,14.20
2011,05,24,11,06,14.20
2011,05,24,11,07,14.30
2011,05,24,11,08,14.40
2011,05,24,11,09,14.40
2011,05,24,11,10,14.30
2011,05,24,11,11,14.20
2011,05,24,11,12,14.20
2011,05,24,11,13,14.20
2011,05,24,11,14,14.20
2011,05,24,11,15,14.20
2011,05,24,11,16,14.20
2011,05,24,11,17,14.30
2011,05,24,11,18,14.30
2011,05,24,11,19,14.30
2011,05,24,11,20,14.30
2011,05,24,11,21,14.30
2011,05,24,11,22,14.20
2011,05,24,11,23,14.20
2011,05,24,11,24,14.30
2011,05,24,11,25,14.30
2011,05,24,11,26,14.40
2011,05,24,11,27,14.40
2011,05,24,11,28,14.40
2011,05,24,11,29,14.50
2011,05,24,11,30,14.70
2011,05,24,11,31,14.70
2011,05,24,11,32,14.70
2011,05,24,11,33,14.80
2011,05,24,11,34,14.90
2011,05,24,11,35,14.90
2011,05,24,11,36,15.00
2011,05,24,11,37,14.90
2011,05,24,11,38,15.00
2011,05,24,11,39,15.00
2011,05,24,11,40,15.00
2011,05,24,11,41,15.00
2011,05,24,11,42,14.90
2011,05,24,11,43,14.80
2011,05,24,11,44,14.80
2011,05,24,11,45,14.70
2011,05,24,11,46,14.60
2011,05,24,11,47,14.60
2011,05,24,11,48,14.70
2011,05,24,11,49,14.70
2011,05,24,11,50,14.70
2011,05,24,11,51,14.80
2011,05,24,11,52,14.90
2011,05,24,11,53,15.00
2011,05,24,11,54,15.00
2011,05,24,11,55,14.80
2011,05,24,11,56,14.70
2011,05,24,11,57,14.70
2011,05,24,11,58,14.80
2011,05,24,11,59,14.90
2011,05,24,12,00,15.00
2011,05,24,12,01,15.10
2011,05,24,12,02,15.20
2011,05,24,12,03,15.20
2011,05,24,12,04,15.10
2011,05,24,12,05,15.00
2011,05,24,12,06,14.90
2011,05,24,12,07,14.90
2011,05,24,12,08,14.80
2011,05,24,12,09,14.80
2011,05,24,12,10,14.90
2011,05,24,12,11,15.00
2011,05,24,12,12,15.00
2011,05,24,12,13,15.00
2011,05,24,12,14,15.00
2011,05,24,12,15,15.00
2011,05,24,12,16,15.00
2011,05,24,12,17,15.00
2011,05,24,12,18,14.90
2011,05,24,12,19,14.90
2011,05,24,12,20,15.00
2011,05,24,12,21,15.00
2011,05,24,12,22,15.00
2011,05,24,12,23,15.00
2011,05,24,12,24,15.10
2011,05,24,12,25,15.30
2011,05,24,12,26,15.30
2011,05,24,12,27,15.40
2011,05,24,12,28,15.30
2011,05,24,12,29,15.30
2011,05,24,12,30,15.30
2011,05,24,12,31,15.40
2011,05,24,12,32,15.50
2011,05,24,12,33,15.60
2011,05,24,12,34,15.70
2011,05,24,12,35,15.90
2011,05,24,12,36,16.00
2011,05,24,12,37,15.90
2011,05,24,12,38,15.80
2011,05,24,12,39,15.50
2011,05,24,12,40,15.40
2011,05,24,12,41,15.40
2011,05,24,12,42,15.20
2011,05,24,12,43,15.00
2011,05,24,12,44,15.00
2011,05,24,12,45,15.00
2011,05,24,12,46,15.00
2011,05,24,12,47,15.00
2011,05,24,12,48,14.90
2011,05,24,12,49,14.80
2011,05,24,12,50,14.70
2011,05,24,12,51,14.70
2011,05,24,12,52,14.60
2011,05,24,12,53,14.60
2011,05,24,12,54,14.60
2011,05,24,12,55,14.60
2011,05,24,12,56,14.60
2011,05,24,12,57,14.60
2011,05,24,12,58,14.60
2011,05,24,12,59,14.50
2011,05,24,13,00,14.50
2011,05,24,13,01,14.50
2011,05,24,13,02,14.50
2011,05,24,13,03,14.60
2011,05,24,13,06,14.70
2011,05,24,13,07,14.70
2011,05,24,13,08,14.70
2011,05,24,13,09,14.80
2011,05,24,13,10,14.90
2011,05,24,13,11,15.00
2011,05,24,13,12,15.00
2011,05,24,13,13,15.00
2011,05,24,13,14,15.00
2011,05,24,13,15,15.00
2011,05,24,13,16,14.80
2011,05,24,13,19,14.50
2011,05,24,13,20,14.50
2011,05,24,13,21,14.50
2011,05,24,13,22,14.50
2011,05,24,13,23,14.50
2011,05,24,13,24,14.60
2011,05,24,13,25,14.80
2011,05,24,13,26,15.00
2011,05,24,13,27,15.00
2011,05,24,13,28,15.00
2011,05,24,13,29,15.10
2011,05,24,13,30,15.20
2011,05,24,13,31,15.30
2011,05,24,13,34,15.70
2011,05,24,13,35,15.70
2011,05,24,13,36,15.70
2011,05,24,13,37,15.70
2011,05,24,13,38,15.60
2011,05,24,13,39,15.60
2011,05,24,13,40,15.60
2011,05,24,13,41,15.50
2011,05,24,13,42,15.40
2011,05,24,13,43,15.50
2011,05,24,13,44,15.50
2011,05,24,13,45,15.60
2011,05,24,13,46,15.70
2011,05,24,13,47,15.60
2011,05,24,13,48,15.50
2011,05,24,13,49,15.40
2011,05,24,13,50,15.50
2011,05,24,13,51,15.50
2011,05,24,13,52,15.60
2011,05,24,13,53,15.60
2011,05,24,13,54,15.60
2011,05,24,13,55,15.60
2011,05,24,13,56,15.60
2011,05,24,13,57,15.60
2011,05,24,13,58,15.70
2011,05,24,13,59,15.80
2011,05,24,14,00,15.80
2011,05,24,14,01,15.80
2011,05,24,14,02,15.70
2011,05,24,14,03,15.50
2011,05,24,14,04,15.50
2011,05,24,14,05,15.40
2011,05,24,14,06,15.30
2011,05,24,14,07,15.20
2011,05,24,14,08,15.30
2011,05,24,14,09,15.30
2011,05,24,14,10,15.30
2011,05,24,14,11,15.20
2011,05,24,14,12,15.00
2011,05,24,14,13,15.00
2011,05,24,14,14,15.00
2011,05,24,14,15,15.00
2011,05,24,14,16,14.90
2011,05,24,14,17,14.80
2011,05,24,14,18,14.80
2011,05,24,14,19,14.70
2011,05,24,14,20,14.60
2011,05,24,14,21,14.60
2011,05,24,14,22,14.60
2011,05,24,14,23,14.60
2011,05,24,14,24,14.70
2011,05,24,14,25,14.70
2011,05,24,14,26,14.70
2011,05,24,14,27,14.60
2011,05,24,14,28,14.50
2011,05,24,14,29,14.50
2011,05,24,14,30,14.60
2011,05,24,14,31,14.60
2011,05,24,14,32,14.50
2011,05,24,14,33,14.50
2011,05,24,14,34,14.70
2011,05,24,14,35,14.70
2011,05,24,14,36,14.70
2011,05,24,14,37,14.70
2011,05,24,14,38,14.70
2011,05,24,14,39,14.70
2011,05,24,14,40,14.80
2011,05,24,14,41,14.80
2011,05,24,14,42,14.70
2011,05,24,14,43,14.70
2011,05,24,14,44,14.70
2011,05,24,14,45,14.70
2011,05,24,14,46,14.70
2011,05,24,14,47,14.70
2011,05,24,14,48,14.70
2011,05,24,14,49,14.60
2011,05,24,14,50,14.50
2011,05,24,14,51,14.50
2011,05,24,14,52,14.40
2011,05,24,14,53,14.50
2011,05,24,14,54,14.50
2011,05,24,14,55,14.40
2011,05,24,14,56,14.40
2011,05,24,14,57,14.50
2011,05,24,14,58,14.60
2011,05,24,14,59,14.80
2011,05,24,15,00,15.00
2011,05,24,15,01,15.00
2011,05,24,15,02,15.00
2011,05,24,15,03,15.00
2011,05,24,15,04,15.00
2011,05,24,15,05,15.00
2011,05,24,15,06,15.00
2011,05,24,15,07,15.10
2011,05,24,15,08,15.10
2011,05,24,15,09,15.00
2011,05,24,15,10,15.00
2011,05,24,15,11,15.00
2011,05,24,15,12,15.10
2011,05,24,15,13,15.30
2011,05,24,15,14,15.40
2011,05,24,15,15,15.60
2011,05,24,15,16,15.60
2011,05,24,15,17,15.60
2011,05,24,15,18,15.70
2011,05,24,15,19,15.80
2011,05,24,15,20,15.90
2011,05,24,15,21,15.90
2011,05,24,15,22,15.80
2011,05,24,15,23,15.70
2011,05,24,15,24,15.80
2011,05,24,15,25,15.70
2011,05,24,15,26,15.80
2011,05,24,15,27,15.80
2011,05,24,15,28,15.80
2011,05,24,15,29,15.90
2011,05,24,15,30,15.90
2011,05,24,15,31,16.00
2011,05,24,15,32,16.10
2011,05,24,15,33,16.20
2011,05,24,15,34,16.20
2011,05,24,15,35,16.00
2011,05,24,15,36,16.00
2011,05,24,15,37,16.00
2011,05,24,15,38,15.90
2011,05,24,15,39,15.90
2011,05,24,15,40,16.00
2011,05,24,15,41,16.10
2011,05,24,15,42,16.20
2011,05,24,15,43,16.20
2011,05,24,15,44,16.10
2011,05,24,15,45,16.10
2011,05,24,15,46,16.10
2011,05,24,15,47,16.10
2011,05,24,15,48,15.90
2011,05,24,15,49,15.70
2011,05,24,15,50,15.60
2011,05,24,15,51,15.70
2011,05,24,15,52,15.80
2011,05,24,15,53,15.90
2011,05,24,15,54,16.00
2011,05,24,15,55,15.90
2011,05,24,15,56,15.80
2011,05,24,15,57,15.90
2011,05,24,15,58,15.80
2011,05,24,15,59,15.70
2011,05,24,16,00,15.60
2011,05,24,16,01,15.40
2011,05,24,16,02,15.30
2011,05,24,16,03,15.20
2011,05,24,16,04,15.10
2011,05,24,16,05,15.10
2011,05,24,16,06,15.10
2011,05,24,16,07,15.20
2011,05,24,16,08,15.20
2011,05,24,16,09,15.40
2011,05,24,16,10,15.60
2011,05,24,16,11,15.60
2011,05,24,16,12,15.70
2011,05,24,16,13,15.70
2011,05,24,16,14,15.70
2011,05,24,16,15,15.70
2011,05,24,16,16,15.70
2011,05,24,16,17,15.70
2011,05,24,16,18,15.80
2011,05,24,16,19,15.80
2011,05,24,16,20,15.70
2011,05,24,16,21,15.50
2011,05,24,16,22,15.40
2011,05,24,16,23,15.30
2011,05,24,16,24,15.30
2011,05,24,16,25,15.30
2011,05,24,16,26,15.40
2011,05,24,16,27,15.60
2011,05,24,16,28,15.80
2011,05,24,16,29,15.90
2011,05,24,16,30,15.90
2011,05,24,16,31,15.80
2011,05,24,16,32,15.90
2011,05,24,16,33,16.00
2011,05,24,16,34,16.00
2011,05,24,16,35,16.10
2011,05,24,16,36,16.20
2011,05,24,16,37,16.30
2011,05,24,16,38,16.30
2011,05,24,16,39,16.30
2011,05,24,16,40,16.30
2011,05,24,16,41,16.20
2011,05,24,16,42,16.20
2011,05,24,16,43,16.20
2011,05,24,16,44,16.20
2011,05,24,16,45,16.20
2011,05,24,16,46,16.20
2011,05,24,16,47,16.00
2011,05,24,16,48,15.90
2011,05,24,16,49,15.90
2011,05,24,16,50,15.80
2011,05,24,16,51,15.80
2011,05,24,16,52,15.80
2011,05,24,16,53,15.80
2011,05,24,16,54,15.90
2011,05,24,16,55,15.80
2011,05,24,16,56,15.70
2011,05,24,16,57,15.60
2011,05,24,16,58,15.60
2011,05,24,16,59,15.60
2011,05,24,17,00,15.60
2011,05,24,17,01,15.50
2011,05,24,17,02,15.50
2011,05,24,17,03,15.60
2011,05,24,17,04,15.50
2011,05,24,17,05,15.50
2011,05,24,17,06,15.30
2011,05,24,17,07,15.30
2011,05,24,17,08,15.10
2011,05,24,17,09,15.00
2011,05,24,17,10,15.00
2011,05,24,17,11,15.00
2011,05,24,17,12,14.80
2011,05,24,17,13,14.80
2011,05,24,17,14,14.80
2011,05,24,17,15,14.90
2011,05,24,17,16,15.00
2011,05,24,17,17,15.00
2011,05,24,17,18,15.10
2011,05,24,17,19,15.20
2011,05,24,17,20,15.30
2011,05,24,17,21,15.30
2011,05,24,17,22,15.40
2011,05,24,17,23,15.50
2011,05,24,17,24,15.60
2011,05,24,17,25,15.60
2011,05,24,17,26,15.60
2011,05,24,17,27,15.50
2011,05,24,17,28,15.50
2011,05,24,17,29,15.40
2011,05,24,17,30,15.30
2011,05,24,17,31,15.30
2011,05,24,17,32,15.30
2011,05,24,17,33,15.20
2011,05,24,17,34,15.20
2011,05,24,17,35,15.10
2011,05,24,17,36,15.10
2011,05,24,17,37,15.20
2011,05,24,17,38,15.30
2011,05,24,17,39,15.40
2011,05,24,17,40,15.50
2011,05,24,17,41,15.40
2011,05,24,17,42,15.20
2011,05,24,17,43,15.10
2011,05,24,17,44,15.10
2011,05,24,17,45,15.00
2011,05,24,17,46,15.00
2011,05,24,17,47,15.00
2011,05,24,17,48,15.00
2011,05,24,17,49,15.00
2011,05,24,17,50,14.90
2011,05,24,17,51,14.80
2011,05,24,17,52,14.70
2011,05,24,17,53,14.70